Fredericksburg, TX

6:02 AM CDT on July 24, 2017 (GMT -0500)
Fredericksburg

Weather History for KT82 - April, 2013

Change the Weather History Date:

Tuesday, April 23, 2013

  Actual Average (KSAT) Record (KSAT)
Temperature  
Mean Temperature 58 °F -  
Max Temperature 70 °F 82 °F 98 °F (2000)
Min Temperature 46 °F 60 °F 45 °F (1959)
Degree Days  
Heating Degree Days 7    
Growing Degree Days 8 (Base 50)    
Moisture  
Dew Point 53 °F    
Average Humidity 75    
Maximum Humidity 88    
Minimum Humidity 54    
Precipitation  
Precipitation 0.00 in - - ()
Sea Level Pressure  
Sea Level Pressure 29.95 in    
Wind  
Wind Speed 11 mph (NNW)    
Max Wind Speed 18 mph    
Max Gust Speed 25 mph    
Visibility 10 miles    
Events      
Averages and records for this station are not official NWS values.
T = Trace of Precipitation, MM = Missing Value Source: NWS Daily Summary

Daily Weather History Graph

Daily Weather History Graph

Search for Another Location

Airport or City:

Trip Planner

Search our weather history database for the weather conditions in past years. The results will help you decide how hot, cold, wet, or windy it might be!

Date:

Astronomy

Apr. 23, 2013 Rise Set
Actual Time 6:59 AM CDT 8:08 PM CDT
Civil Twilight 6:34 AM CDT 8:33 PM CDT
Nautical Twilight 6:05 AM CDT 9:03 PM CDT
Astronomical Twilight 5:34 AM CDT 9:33 PM CDT
Moon 6:12 PM CDT (4/23) 5:19 AM CDT (4/23)
Length of Visible Light 13h 58m
Length of Day
13h 08m
Waxing Gibbous, 94% of the Moon is Illuminated
Apr 23
Waxing Gibbous
Apr 25
Full
May 2
Last Quarter
May 9
New
May 17
First Quarter

Hourly Weather History & Observations

Time (CDT) Temp. Windchill Dew Point Humidity Pressure Visibility Wind Dir Wind Speed Gust Speed Precip Events Conditions
12:15 AM 67.8 °F - 59.0 °F 73% 29.91 in 10.0 mi South 10.4 mph - N/A   Clear
12:35 AM 67.3 °F - 60.3 °F 78% 29.91 in 10.0 mi South 13.8 mph 18.4 mph N/A   Clear
12:55 AM 66.6 °F - 60.3 °F 80% 29.91 in 10.0 mi South 8.1 mph 17.3 mph N/A   Clear
1:15 AM 65.8 °F - 60.1 °F 82% 29.91 in 10.0 mi South 9.2 mph - N/A   Clear
1:35 AM 65.8 °F - 60.3 °F 82% 29.90 in 10.0 mi South 9.2 mph 18.4 mph N/A   Mostly Cloudy
1:55 AM 65.8 °F - 60.4 °F 83% 29.89 in 10.0 mi South 9.2 mph - N/A   Overcast
2:15 AM 65.7 °F - 60.3 °F 83% 29.89 in 10.0 mi South 9.2 mph - N/A   Overcast
2:35 AM 65.7 °F - 60.4 °F 83% 29.89 in 10.0 mi SSW 10.4 mph 16.1 mph N/A   Overcast
2:55 AM 65.7 °F - 60.8 °F 84% 29.88 in 10.0 mi South 9.2 mph - N/A   Overcast
3:15 AM 65.7 °F - 61.0 °F 85% 29.88 in 10.0 mi South 12.7 mph 16.1 mph N/A   Overcast
3:35 AM 65.5 °F - 61.0 °F 85% 29.87 in 10.0 mi South 13.8 mph 20.7 mph N/A   Overcast
3:55 AM 65.3 °F - 61.2 °F 86% 29.86 in 10.0 mi SSW 11.5 mph 16.1 mph N/A   Overcast
4:15 AM 65.3 °F - 61.0 °F 86% 29.86 in 10.0 mi South 13.8 mph - N/A   Overcast
4:35 AM 64.8 °F - 60.8 °F 87% 29.86 in 10.0 mi South 10.4 mph - N/A   Overcast
4:55 AM 64.6 °F - 60.8 °F 88% 29.86 in 10.0 mi South 10.4 mph - N/A   Overcast
5:15 AM 64.6 °F - 60.8 °F 88% 29.86 in 10.0 mi South 13.8 mph 21.9 mph N/A   Overcast
5:35 AM 64.6 °F - 60.1 °F 85% 29.85 in 10.0 mi South 12.7 mph - N/A   Overcast
5:55 AM 64.6 °F - 59.9 °F 85% 29.86 in 10.0 mi South 11.5 mph 18.4 mph N/A   Overcast
6:15 AM 64.6 °F - 59.9 °F 85% 29.86 in 10.0 mi South 11.5 mph - N/A   Overcast
6:35 AM 64.6 °F - 60.3 °F 86% 29.86 in 10.0 mi SSW 13.8 mph 19.6 mph N/A   Overcast
6:55 AM 64.6 °F - 60.1 °F 85% 29.86 in 10.0 mi SSW 13.8 mph 23.0 mph N/A   Overcast
7:15 AM 64.4 °F - 60.4 °F 87% 29.88 in 10.0 mi South 13.8 mph 18.4 mph N/A   Overcast
7:35 AM 64.4 °F - 60.4 °F 87% 29.88 in 10.0 mi South 12.7 mph - N/A   Overcast
7:55 AM 64.4 °F - 60.4 °F 87% 29.89 in 10.0 mi SSW 13.8 mph - N/A   Overcast
8:15 AM 64.6 °F - 60.8 °F 88% 29.89 in 10.0 mi South 9.2 mph 12.7 mph N/A   Overcast
8:35 AM 64.8 °F - 60.4 °F 86% 29.90 in 10.0 mi SSW 18.4 mph 21.9 mph N/A   Overcast
8:55 AM 65.3 °F - 60.3 °F 84% 29.91 in 10.0 mi SSW 13.8 mph 24.2 mph N/A   Overcast
9:15 AM 65.3 °F - 60.4 °F 84% 29.96 in 10.0 mi SSW 3.5 mph - N/A   Overcast
9:35 AM 64.9 °F - 61.0 °F 87% 29.97 in 10.0 mi Calm Calm - N/A   Light Drizzle
9:55 AM 64.9 °F - 61.3 °F 88% 29.98 in 7.0 mi Calm Calm - N/A   Drizzle
10:15 AM 65.3 °F - 61.3 °F 87% 29.97 in 10.0 mi Calm Calm - N/A   Overcast
10:35 AM 65.3 °F - 61.7 °F 88% 29.97 in 10.0 mi NE 3.5 mph - N/A   Overcast
10:55 AM 65.7 °F - 61.5 °F 86% 29.97 in 10.0 mi Calm Calm - N/A   Overcast
11:15 AM 66.2 °F - 61.9 °F 86% 29.97 in 7.0 mi Calm Calm - N/A   Overcast
11:35 AM 66.7 °F - 61.9 °F 84% 29.98 in 10.0 mi Calm Calm - N/A   Overcast
11:55 AM 68.0 °F - 61.5 °F 80% 29.97 in 10.0 mi Calm Calm - N/A   Overcast
12:15 PM 68.7 °F - 61.5 °F 78% 29.97 in 10.0 mi NE 4.6 mph - N/A   Overcast
12:35 PM 69.8 °F - 61.5 °F 75% 29.97 in 10.0 mi NE 4.6 mph - N/A   Overcast
12:55 PM 69.4 °F - 61.3 °F 75% 29.97 in 10.0 mi ENE 4.6 mph - N/A   Overcast
1:15 PM 70.0 °F - 61.7 °F 75% 29.96 in 10.0 mi Calm Calm - N/A   Overcast
1:35 PM 69.6 °F - 55.8 °F 61% 29.96 in 10.0 mi NNW 13.8 mph 18.4 mph N/A   Overcast
1:55 PM 67.8 °F - 53.6 °F 60% 29.96 in 10.0 mi North 13.8 mph - N/A   Overcast
2:15 PM 67.1 °F - 52.0 °F 58% 29.96 in 10.0 mi North 12.7 mph - N/A   Overcast
2:35 PM 67.3 °F - 51.4 °F 57% 29.96 in 10.0 mi North 11.5 mph - N/A   Overcast
2:55 PM 66.4 °F - 49.6 °F 55% 29.96 in 10.0 mi NNW 13.8 mph - N/A   Overcast
3:15 PM 64.8 °F - 48.2 °F 55% 29.97 in 10.0 mi North 15.0 mph 18.4 mph N/A   Overcast
3:35 PM 63.7 °F - 46.9 °F 54% 29.96 in 10.0 mi North 15.0 mph 20.7 mph N/A   Overcast
3:55 PM 62.1 °F - 46.4 °F 56% 29.97 in 10.0 mi North 15.0 mph - N/A   Overcast
4:15 PM 61.9 °F - 46.0 °F 56% 29.96 in 10.0 mi North 11.5 mph 20.7 mph N/A   Overcast
4:35 PM 61.0 °F - 45.3 °F 56% 29.96 in 10.0 mi North 15.0 mph - N/A   Mostly Cloudy
4:55 PM 59.5 °F - 45.1 °F 59% 29.96 in 10.0 mi North 13.8 mph - N/A   Overcast
5:15 PM 57.9 °F - 44.1 °F 60% 29.96 in 10.0 mi North 16.1 mph - N/A   Overcast
5:35 PM 57.2 °F - 44.2 °F 62% 29.96 in 10.0 mi North 12.7 mph 17.3 mph N/A   Overcast
5:55 PM 56.7 °F - 43.9 °F 62% 29.97 in 10.0 mi North 11.5 mph - N/A   Overcast
6:15 PM 55.0 °F - 43.0 °F 64% 29.98 in 10.0 mi NNW 15.0 mph 18.4 mph N/A   Overcast
6:35 PM 54.1 °F - 42.3 °F 64% 29.98 in 10.0 mi North 15.0 mph 21.9 mph N/A   Overcast
6:55 PM 53.1 °F - 41.5 °F 65% 29.99 in 10.0 mi North 13.8 mph - N/A   Overcast
7:15 PM 52.2 °F - 41.4 °F 67% 29.99 in 10.0 mi North 11.5 mph 17.3 mph N/A   Overcast
7:35 PM 51.8 °F - 41.0 °F 67% 29.99 in 10.0 mi North 8.1 mph 19.6 mph N/A   Overcast
7:55 PM 51.3 °F - 40.8 °F 67% 30.00 in 10.0 mi NNE 12.7 mph 17.3 mph N/A   Overcast
8:15 PM 50.4 °F - 40.3 °F 68% 30.01 in 10.0 mi North 13.8 mph - N/A   Overcast
8:35 PM 50.0 °F - 40.3 °F 69% 30.02 in 10.0 mi North 13.8 mph 18.4 mph N/A   Overcast
8:55 PM 49.8 °F - 40.1 °F 69% 30.03 in 10.0 mi North 8.1 mph - N/A   Overcast
9:15 PM 49.5 °F - 39.4 °F 68% 30.04 in 10.0 mi NNE 10.4 mph 17.3 mph N/A   Overcast
9:35 PM 49.3 °F - 39.4 °F 69% 30.06 in 10.0 mi North 9.2 mph - N/A   Overcast
9:55 PM 49.1 °F - 38.8 °F 68% 30.08 in 10.0 mi North 10.4 mph - N/A   Overcast
10:15 PM 48.7 °F - 38.3 °F 67% 30.09 in 10.0 mi North 16.1 mph - N/A   Overcast
10:35 PM 48.2 °F - 38.1 °F 68% 30.11 in 10.0 mi North 13.8 mph 19.6 mph N/A   Overcast
10:55 PM 47.3 °F - 37.9 °F 70% 30.11 in 10.0 mi North 15.0 mph 19.6 mph N/A   Overcast
11:15 PM 46.8 °F - 38.1 °F 72% 30.12 in 10.0 mi North 18.4 mph 23.0 mph N/A   Overcast
11:35 PM 46.8 °F - 38.3 °F 72% 30.13 in 10.0 mi North 17.3 mph 25.3 mph N/A   Overcast
11:55 PM 46.4 °F 39.5 °F 38.3 °F 73% 30.14 in 10.0 mi North 17.3 mph 23.0 mph N/A   Overcast